TimePST,TemperatureF,Dew PointF,Humidity,Sea Level PressureIn,VisibilityMPH,Wind Direction,Wind SpeedMPH,Gust SpeedMPH,PrecipitationIn,Events,Conditions,WindDirDegrees,DateUTC
12:00 AM,34.5,33.8,97,30.01,-9999.0,SE,3.5,-,N/A,,Unknown,130,2013-02-21 08:00:00
1:00 AM,33.8,33.3,98,30.02,-9999.0,NNW,1.2,-,N/A,,Unknown,340,2013-02-21 09:00:00
2:00 AM,35.1,34.3,97,30.02,-9999.0,Calm,Calm,-,N/A,,Unknown,0,2013-02-21 10:00:00
3:00 AM,34.2,33.4,97,30.01,-9999.0,Calm,Calm,-,N/A,,Unknown,0,2013-02-21 11:00:00
4:00 AM,35,34,94,29.99,,NW,1.2,,,,,320,2013-02-21 12:00:00
4:00 AM,34.5,34.0,98,29.99,-9999.0,NW,1.2,-,N/A,,Unknown,320,2013-02-21 12:00:00
5:00 AM,34.5,34.0,98,29.99,-9999.0,SW,1.2,-,N/A,,Unknown,220,2013-02-21 13:00:00
6:00 AM,35.1,34.5,98,29.99,-9999.0,Calm,Calm,-,N/A,,Unknown,0,2013-02-21 14:00:00
7:00 AM,35.2,34.9,99,29.99,-9999.0,NW,3.5,-,0.05,,Unknown,320,2013-02-21 15:00:00
8:00 AM,35.8,35.2,98,30.00,-9999.0,SSE,1.2,-,0.06,,Unknown,160,2013-02-21 16:00:00
9:00 AM,36.3,36.0,99,30.00,-9999.0,NW,3.5,-,0.07,,Unknown,320,2013-02-21 17:00:00
10:00 AM,38,37,95,30.00,,West,1.2,,,,,270,2013-02-21 18:00:00
10:00 AM,37.8,37.0,97,30.00,-9999.0,West,1.2,-,0.03,,Unknown,270,2013-02-21 18:00:00
11:00 AM,40.1,37.0,89,29.99,-9999.0,NNW,1.2,-,0.04,,Unknown,330,2013-02-21 19:00:00
12:00 PM,41.7,38.7,89,29.99,-9999.0,NNW,2.3,-,N/A,,Unknown,340,2013-02-21 20:00:00
1:00 PM,40.3,37.4,89,29.99,-9999.0,SSW,4.6,-,0.05,,Unknown,210,2013-02-21 21:00:00
2:00 PM,39.7,37.4,91,29.98,-9999.0,South,4.6,-,0.02,,Unknown,180,2013-02-21 22:00:00
3:00 PM,39.9,37.8,92,29.98,-9999.0,SE,2.3,-,N/A,,Unknown,140,2013-02-21 23:00:00
4:00 PM,41,38,85,29.98,,East,3.5,,,,,90,2013-02-22 00:00:00
4:00 PM,40.6,37.9,90,29.98,-9999.0,East,3.5,-,N/A,,Unknown,90,2013-02-22 00:00:00
5:00 PM,40.5,39.0,95,29.99,-9999.0,Calm,Calm,-,N/A,,Unknown,0,2013-02-22 01:00:00
6:00 PM,39.6,38.5,96,30.00,-9999.0,NE,1.2,-,N/A,,Unknown,50,2013-02-22 02:00:00
7:00 PM,39.2,38.3,97,29.99,-9999.0,NNW,1.2,-,N/A,,Unknown,330,2013-02-22 03:00:00
8:00 PM,39.2,38.5,97,30.00,-9999.0,SE,3.5,-,N/A,,Unknown,140,2013-02-22 04:00:00
9:00 PM,39.0,38.3,97,30.02,-9999.0,Calm,Calm,-,N/A,,Unknown,0,2013-02-22 05:00:00
10:00 PM,39,38,96,30.00,,SSE,1.2,,,,,160,2013-02-22 06:00:00
10:00 PM,39.0,38.3,97,30.00,-9999.0,SSE,1.2,-,0.01,,Unknown,160,2013-02-22 06:00:00
11:00 PM,39.2,38.7,98,30.00,-9999.0,North,2.3,-,0.02,,Unknown,350,2013-02-22 07:00:00